Location: Hampton Plantation State Historic Site
(33.1998°N, 79.4353°W)
Time: 10:20:34
(UTC-05:00)

X-37B - Visible Passes

Search period start: 27 November 2020 00:00
Search period end: 07 December 2020 00:00
Orbit: 384 x 389 km, 45.0° (Epoch: 12 November)

Date Brightness Start Highest point End Pass type
(mag) Time Alt. Az. Time Alt. Az. Time Alt. Az.
27 Nov 0.6 17:38:48 10° SW 17:41:57 87° SSE 17:45:08 10° ENE visible
27 Nov 3.5 19:16:43 10° WNW 19:17:30 13° NW 19:17:30 13° NW visible
28 Nov 2.3 18:17:25 10° W 18:20:07 25° NNW 18:21:38 18° NNE visible
29 Nov 3.3 18:57:07 10° NW 18:58:00 12° NNW 18:58:00 12° NNW visible
30 Nov 2.8 17:57:35 10° WNW 17:59:46 17° NNW 18:01:57 10° NNE visible
01 Dec 3.3 18:37:42 10° NNW 18:38:23 10° N 18:38:23 10° N visible
02 Dec 3.1 17:37:59 10° NW 17:39:29 13° NNW 17:40:59 10° NNE visible
05 Dec 3.1 17:57:23 10° N 17:58:00 10° N 17:58:38 10° NNE visible
06 Dec 2.8 18:34:30 10° NNW 18:35:43 15° N 18:35:43 15° N visible
